Flag for France Weather past 2 weeks in Bordeaux, France

Now
66 °F

Passing clouds.


Feels Like: 66 °F
Forecast: 68 / 87 °F
Wind: 5 mph from North

Location: Bordeaux / Merignac

Current Time: Jul 3, 2015 at 2:14:41 AM

Latest Report: Jul 3, 2015 at 1:30 AM


Visibility: N/A

Pressure: 30.21 "Hg

Humidity: 83%

Dew point: 61 °F

Location of BordeauxLocation

Historic Weather in Bordeaux — Graph

°F

Bordeaux temperature yesterday

Maximum temperature yesterday: 81 °F (at 5:00 PM)
Minimum temperature yesterday: 66 °F (at 6:30 AM)
Average temperature yesterday: 74 °F

Past Weeks' High & Low Weather Summary

 TemperatureHumidityPressure
High100 °F (Jun 30, 4:30 PM)100% (Jun 29, 7:30 AM)30.30 "Hg (Jun 29, 7:30 AM)
Low54 °F (Jun 23, 4:30 AM)18% (Jun 25, 5:00 PM)29.86 "Hg (Jun 30, 5:00 PM)
Average72 °F61%30.11 "Hg
* Reported Jun 18 1:00 AM — Jul 3 1:00 AM, Bordeaux, Weather by CustomWeather, © 2015

Note: Actual official high and low records may vary slightly from our data, if they occured in-between our weather recording intervals... More about our weather records

Advertising

Bordeaux weather history for previous 24 hours

 ConditionsComfort  
Time TempWeatherWind HumidityBarometerVisibility
1:00 AM
Fri, Jul 3
68 °FPassing clouds.5 mph78%30.21 "HgN/A
12:30 AM68 °FPassing clouds.5 mph78%30.21 "HgN/A
12:00 AM68 °FPassing clouds.6 mph78%30.21 "HgN/A
11:30 PM
Thu, Jul 2
70 °FPassing clouds.6 mph73%30.21 "HgN/A
11:00 PM70 °FPassing clouds.7 mph73%30.21 "HgN/A
10:30 PM72 °FPassing clouds.9 mph69%30.18 "HgN/A
10:00 PM73 °FSunny.8 mph69%30.18 "Hg10 mi
9:30 PM77 °FPassing clouds.8 mph61%30.18 "HgN/A
9:00 PM79 °FPassing clouds.7 mph58%30.18 "HgN/A
8:30 PM79 °FPassing clouds.6 mph58%30.18 "HgN/A
8:00 PM81 °FPassing clouds.7 mph51%30.18 "HgN/A
7:30 PM81 °FPassing clouds.8 mph54%30.18 "HgN/A
7:00 PM81 °FPartly sunny.8 mph54%30.18 "HgN/A
6:30 PM81 °FBroken clouds.7 mph54%30.18 "HgN/A
6:00 PM81 °FBroken clouds.5 mph54%30.18 "HgN/A
5:30 PM81 °FBroken clouds.8 mph54%30.18 "HgN/A
5:00 PM81 °FBroken clouds.8 mph54%30.18 "HgN/A
4:00 PM79 °FBroken clouds.7 mph58%30.15 "HgN/A
3:30 PM79 °FBroken clouds.10 mph58%30.15 "HgN/A
3:00 PM79 °FPartly sunny.10 mph58%30.15 "HgN/A
2:30 PM79 °FBroken clouds.12 mph58%30.15 "HgN/A
2:00 PM79 °FPartly sunny.12 mph61%30.15 "HgN/A
1:30 PM77 °FPartly sunny.12 mph61%30.12 "HgN/A
1:00 PM79 °FPartly sunny.12 mph61%30.12 "HgN/A
12:30 PM79 °FPartly sunny.9 mph61%30.09 "HgN/A
12:00 PM77 °FPartly sunny.10 mph65%30.09 "HgN/A
11:30 AM75 °FPartly sunny.13 mph74%30.09 "HgN/A
11:00 AM75 °FPartly sunny.17 mph69%30.09 "HgN/A
10:30 AM73 °FOvercast.17 mph74%30.07 "HgN/A
10:00 AM75 °FBroken clouds.12 mph74%30.07 "HgN/A
9:30 AM73 °FClear.6 mph78%30.04 "HgN/A
9:00 AM73 °FSunny.6 mph78%30.01 "Hg10 mi
8:30 AM72 °FPassing clouds.5 mph78%30.01 "HgN/A
8:00 AM70 °FPassing clouds.3 mph83%30.01 "HgN/A
7:30 AM68 °FMild.3 mph88%29.98 "HgN/A
7:00 AM66 °FPassing clouds.5 mph88%29.98 "HgN/A
6:30 AM66 °FMild.3 mph88%29.98 "HgN/A
6:00 AM68 °FMild.6 mph83%29.98 "HgN/A
5:30 AM68 °FMild.6 mph83%29.98 "HgN/A
5:00 AM70 °FClear.6 mph83%29.95 "Hg10 mi
4:30 AM72 °FClear.2 mph78%29.95 "Hg10 mi
4:00 AM72 °FClear.2 mph78%29.95 "Hg10 mi
3:30 AM72 °FClear.7 mph78%29.92 "Hg10 mi
3:00 AM72 °FClear.12 mph78%29.92 "Hg10 mi
2:30 AM72 °FClear.13 mph78%29.95 "Hg10 mi
2:00 AM72 °FThundershowers. Overcast.12 mph78%29.95 "HgN/A
Weather by CustomWeather, © 2015

See weather overviewHow to use our weather pages